This is the latest recevied weather packets stored in our database for station/object W8AN. If no packets are shown the sender has not sent any weather packets the latest 10 day(s).
| Time | Temp. | Humidity | Pressure | Rain* | Wind** | Luminosity | Snow |
|---|---|---|---|---|---|---|---|
| 1778038968 | 8.89° C | 86% | 4264.1 hPa | 0 mm | - | 0 W/m² | - |
| 1778038664 | 8.89° C | 86% | 4263.9 hPa | 0 mm | - | 0 W/m² | - |
| 1778038362 | 8.89° C | 86% | 4263.9 hPa | 0 mm | - | 0 W/m² | - |
| 1778038058 | 8.89° C | 86% | 4264.1 hPa | 0 mm | - | 0 W/m² | - |
| 1778037755 | 8.89° C | 86% | 4263.9 hPa | 0 mm | - | 0 W/m² | - |
| 1778037447 | 8.89° C | 86% | 4264.1 hPa | 0 mm | - | 0 W/m² | - |
| 1778037144 | 8.89° C | 86% | 4264.2 hPa | 1.27 mm | - | 0 W/m² | - |
| 1778036842 | 8.89° C | 86% | 4264.2 hPa | 1.27 mm | - | 0 W/m² | - |
| 1778036539 | 8.89° C | 86% | 4264.1 hPa | 0 mm | - | 0 W/m² | - |
| 1778036236 | 8.89° C | 86% | 4264.3 hPa | 0 mm | - | 0 W/m² | - |
| 1778035932 | 8.89° C | 86% | 4264.2 hPa | 1.78 mm | - | 0 W/m² | - |
| 1778035629 | 8.89° C | 86% | 4264.1 hPa | 1.78 mm | - | 0 W/m² | - |
| 1778035326 | 8.89° C | 86% | 4264.4 hPa | 0 mm | - | 0 W/m² | - |
| 1778035022 | 8.89° C | 86% | 4264.1 hPa | 1.27 mm | - | 0 W/m² | - |
| 1778034720 | 8.89° C | 86% | 4264.2 hPa | 1.27 mm | - | 0 W/m² | - |
| 1778034416 | 8.89° C | 86% | 4264 hPa | 0 mm | - | 0 W/m² | - |
| 1778034114 | 8.89° C | 85% | 4264 hPa | 1.78 mm | - | 0 W/m² | - |
| 1778033812 | 8.89° C | 85% | 4264.1 hPa | 1.78 mm | - | 0 W/m² | - |
| 1778033509 | 8.89° C | 85% | 4264.1 hPa | 0 mm | - | 0 W/m² | - |
| 1778033206 | 8.89° C | 85% | 4264.3 hPa | 1.27 mm | - | 0 W/m² | - |
| 1778032903 | 8.89° C | 85% | 4264.1 hPa | 3.05 mm | - | 0 W/m² | - |
| 1778032601 | 8.89° C | 85% | 4264.2 hPa | 1.78 mm | - | 0 W/m² | - |
| 1778032298 | 8.89° C | 85% | 4264.1 hPa | 1.27 mm | - | 0 W/m² | - |
| 1778031995 | 8.89° C | 85% | 4263.7 hPa | 1.27 mm | - | 0 W/m² | - |
| 1778031690 | 8.89° C | 85% | 4264.1 hPa | 1.78 mm | - | 0 W/m² | - |
* Rain latest hour (hover to see other rain measurements)
** Current wind speed in m/s (hover to see current wind gust speed)